TimePDT,TemperatureF,Dew PointF,Humidity,Sea Level PressureIn,VisibilityMPH,Wind Direction,Wind SpeedMPH,Gust SpeedMPH,PrecipitationIn,Events,Conditions,WindDirDegrees,DateUTC
12:15 AM,41.0,41.0,100,30.27,10.0,Calm,Calm,-,N/A,,Scattered Clouds,0,2013-03-23 07:15:00
12:35 AM,41.0,41.0,100,30.26,10.0,Calm,Calm,-,N/A,,Clear,0,2013-03-23 07:35:00
12:55 AM,41.0,41.0,100,30.27,10.0,Calm,Calm,-,N/A,,Clear,0,2013-03-23 07:55:00
1:15 AM,39.2,39.2,100,30.27,10.0,WSW,3.5,-,N/A,,Clear,250,2013-03-23 08:15:00
1:35 AM,39.2,39.2,100,30.27,10.0,Calm,Calm,-,N/A,,Clear,0,2013-03-23 08:35:00
1:55 AM,37.4,37.4,100,30.27,10.0,Calm,Calm,-,N/A,,Clear,0,2013-03-23 08:55:00
2:15 AM,37.4,37.4,100,30.27,10.0,Calm,Calm,-,N/A,,Clear,0,2013-03-23 09:15:00
2:35 AM,37.4,37.4,100,30.27,10.0,Calm,Calm,-,N/A,,Clear,0,2013-03-23 09:35:00
2:55 AM,35.6,35.6,100,30.27,10.0,Calm,Calm,-,N/A,,Clear,0,2013-03-23 09:55:00
3:15 AM,35.6,35.6,100,30.26,10.0,Calm,Calm,-,N/A,,Clear,0,2013-03-23 10:15:00
3:35 AM,37.4,37.4,100,30.26,10.0,Calm,Calm,-,N/A,,Clear,0,2013-03-23 10:35:00
3:55 AM,37.4,37.4,100,30.25,10.0,Calm,Calm,-,N/A,,Clear,0,2013-03-23 10:55:00
4:35 AM,33.8,33.8,100,30.24,9.0,Calm,Calm,-,N/A,,Clear,0,2013-03-23 11:35:00
4:55 AM,32.0,32.0,100,30.25,10.0,Calm,Calm,-,N/A,,Clear,0,2013-03-23 11:55:00
5:15 AM,32.0,32.0,100,30.25,10.0,Calm,Calm,-,N/A,,Clear,0,2013-03-23 12:15:00
5:55 AM,32.0,32.0,100,30.24,10.0,Calm,Calm,-,N/A,,Clear,0,2013-03-23 12:55:00
6:15 AM,32.0,32.0,100,30.24,10.0,SE,5.8,-,N/A,,Clear,130,2013-03-23 13:15:00
6:35 AM,32.0,32.0,100,30.25,10.0,Calm,Calm,-,N/A,,Clear,0,2013-03-23 13:35:00
6:55 AM,32.0,32.0,100,30.26,10.0,SE,5.8,-,N/A,,Clear,130,2013-03-23 13:55:00
7:15 AM,32.0,32.0,100,30.26,10.0,Calm,Calm,-,N/A,,Clear,0,2013-03-23 14:15:00
7:35 AM,32.0,32.0,100,30.26,10.0,SSE,6.9,-,N/A,,Clear,150,2013-03-23 14:35:00
7:55 AM,32.0,32.0,100,30.26,10.0,Calm,Calm,-,N/A,,Clear,0,2013-03-23 14:55:00
8:15 AM,35.6,35.6,100,30.26,10.0,ESE,8.1,-,N/A,,Clear,110,2013-03-23 15:15:00
8:35 AM,37.4,37.4,100,30.26,10.0,Calm,Calm,-,N/A,,Clear,0,2013-03-23 15:35:00
8:55 AM,37.4,37.4,100,30.26,10.0,Calm,Calm,-,N/A,,Clear,0,2013-03-23 15:55:00
9:15 AM,39.2,39.2,100,30.26,10.0,Calm,Calm,-,N/A,,Clear,0,2013-03-23 16:15:00
9:35 AM,41.0,39.2,93,30.26,10.0,Calm,Calm,-,N/A,,Clear,0,2013-03-23 16:35:00
9:55 AM,42.8,39.2,87,30.26,10.0,Calm,Calm,-,N/A,,Clear,0,2013-03-23 16:55:00
10:15 AM,44.6,39.2,81,30.26,10.0,Calm,Calm,-,N/A,,Clear,0,2013-03-23 17:15:00
10:35 AM,44.6,39.2,81,30.26,10.0,Calm,Calm,-,N/A,,Clear,0,2013-03-23 17:35:00
10:55 AM,46.4,39.2,76,30.26,10.0,West,5.8,-,N/A,,Clear,280,2013-03-23 17:55:00
11:15 AM,48.2,37.4,66,30.26,10.0,WNW,8.1,-,N/A,,Clear,290,2013-03-23 18:15:00
11:35 AM,48.2,37.4,66,30.26,10.0,NW,11.5,-,N/A,,Clear,310,2013-03-23 18:35:00
11:55 AM,48.2,37.4,66,30.26,10.0,NW,13.8,-,N/A,,Clear,310,2013-03-23 18:55:00
12:15 PM,48.2,35.6,62,30.25,10.0,NW,17.3,20.7,N/A,,Clear,310,2013-03-23 19:15:00
12:35 PM,48.2,37.4,66,30.25,10.0,NW,15.0,-,N/A,,Clear,320,2013-03-23 19:35:00
12:55 PM,48.2,35.6,62,30.26,10.0,WNW,15.0,-,N/A,,Clear,290,2013-03-23 19:55:00
1:15 PM,50.0,37.4,62,30.25,10.0,NW,16.1,-,N/A,,Clear,310,2013-03-23 20:15:00
1:35 PM,50.0,37.4,62,30.24,10.0,WNW,12.7,19.6,N/A,,Clear,290,2013-03-23 20:35:00
1:55 PM,50.0,39.2,66,30.23,10.0,WNW,12.7,17.3,N/A,,Clear,290,2013-03-23 20:55:00
2:15 PM,50.0,41.0,71,30.22,10.0,WNW,13.8,-,N/A,,Clear,300,2013-03-23 21:15:00
2:35 PM,50.0,39.2,66,30.21,10.0,WNW,16.1,19.6,N/A,,Clear,300,2013-03-23 21:35:00
2:55 PM,51.8,39.2,62,30.21,10.0,WNW,15.0,-,N/A,,Clear,300,2013-03-23 21:55:00
3:15 PM,50.0,37.4,62,30.21,10.0,WNW,15.0,-,N/A,,Clear,300,2013-03-23 22:15:00
3:35 PM,50.0,37.4,62,30.21,10.0,WNW,15.0,20.7,N/A,,Clear,300,2013-03-23 22:35:00
3:55 PM,50.0,39.2,66,30.21,10.0,NW,15.0,21.9,N/A,,Clear,310,2013-03-23 22:55:00
4:15 PM,50.0,39.2,66,30.21,10.0,WNW,13.8,-,N/A,,Clear,300,2013-03-23 23:15:00
4:35 PM,50.0,39.2,66,30.20,10.0,WNW,17.3,21.9,N/A,,Clear,300,2013-03-23 23:35:00
4:55 PM,50.0,39.2,66,30.21,10.0,WNW,15.0,-,N/A,,Clear,300,2013-03-23 23:55:00
5:15 PM,50.0,39.2,66,30.22,10.0,NW,15.0,18.4,N/A,,Clear,320,2013-03-24 00:15:00
5:35 PM,50.0,39.2,66,30.21,10.0,NW,10.4,-,N/A,,Clear,310,2013-03-24 00:35:00
5:55 PM,48.2,39.2,71,30.20,10.0,WNW,11.5,16.1,N/A,,Clear,300,2013-03-24 00:55:00
6:15 PM,48.2,39.2,71,30.21,10.0,WNW,12.7,16.1,N/A,,Clear,300,2013-03-24 01:15:00
6:35 PM,48.2,41.0,76,30.21,10.0,WNW,9.2,-,N/A,,Clear,290,2013-03-24 01:35:00
6:55 PM,46.4,41.0,81,30.21,10.0,WNW,9.2,-,N/A,,Clear,300,2013-03-24 01:55:00
7:15 PM,46.4,41.0,81,30.21,10.0,WNW,8.1,-,N/A,,Clear,290,2013-03-24 02:15:00
7:35 PM,44.6,41.0,87,30.22,10.0,WNW,8.1,-,N/A,,Clear,290,2013-03-24 02:35:00
7:55 PM,44.6,41.0,87,30.22,10.0,WNW,6.9,-,N/A,,Clear,290,2013-03-24 02:55:00
8:15 PM,44.6,41.0,87,30.21,10.0,West,8.1,-,N/A,,Clear,280,2013-03-24 03:15:00
8:35 PM,44.6,41.0,87,30.21,10.0,West,3.5,-,N/A,,Clear,270,2013-03-24 03:35:00
8:55 PM,42.8,41.0,93,30.21,10.0,West,6.9,-,N/A,,Clear,280,2013-03-24 03:55:00
9:15 PM,42.8,41.0,93,30.21,10.0,WNW,6.9,-,N/A,,Clear,290,2013-03-24 04:15:00
9:35 PM,42.8,41.0,93,30.22,10.0,NW,9.2,-,N/A,,Clear,310,2013-03-24 04:35:00
9:55 PM,41.0,41.0,100,30.23,10.0,NW,6.9,-,N/A,,Clear,310,2013-03-24 04:55:00
10:15 PM,41.0,41.0,100,30.23,10.0,Calm,Calm,-,N/A,,Scattered Clouds,0,2013-03-24 05:15:00
10:35 PM,41.0,41.0,100,30.23,10.0,Calm,Calm,-,N/A,,Mostly Cloudy,0,2013-03-24 05:35:00
10:55 PM,42.8,42.8,100,30.23,10.0,Calm,Calm,-,N/A,,Overcast,0,2013-03-24 05:55:00
11:15 PM,41.0,41.0,100,30.23,10.0,Calm,Calm,-,N/A,,Overcast,0,2013-03-24 06:15:00
11:35 PM,41.0,41.0,100,30.22,10.0,Calm,Calm,-,N/A,,Overcast,0,2013-03-24 06:35:00
11:55 PM,41.0,41.0,100,30.22,10.0,Calm,Calm,-,N/A,,Overcast,0,2013-03-24 06:55:00